Regional Weather Roundup
Issued by NWS

Home | Current Version | Previous Version | Graphics & Text | Print | Product List | Glossary On
Versions: 1 2 3 4 5 6 7 8 9 10 11 12 13 14 15 16 17 18 19 20 21 22 23 24 25 26 27 28 29 30 31 32 33 34 35 36 37 38 39 40 41 42 43 44 45 46 47 48 49 50
000
ASUS43 KFSD 072210
RWRSD

WEATHER ROUNDUP FOR SOUTH DAKOTA
NATIONAL WEATHER SERVICE SIOUX FALLS SD
500 PM CDT TUE JUL 07 2015

NOTE: "FAIR" INDICATES FEW OR NO CLOUDS BELOW 12,000 FEET WITH NO
SIGNIFICANT WEATHER AND/OR OBSTRUCTIONS TO VISIBILITY.


SDZ001>005-009-010-012>017-072300-
NORTHWEST AND NORTH CENTRAL SOUTH DAKOTA

CITY           SKY/WX    TMP DP  RH WIND       PRES   REMARKS
BUFFALO          N/A     79  48  33 S9        29.91F
FAITH            N/A     76  57  51 SE21G29   30.01F
MOBRIDGE       SUNNY     78  56  46 SE15      30.04F
$$

SDZ012>016-024>037-041>051-057-063-072>074-072300-
SOUTHWEST AND SOUTH CENTRAL SOUTH DAKOTA

CITY           SKY/WX    TMP DP  RH WIND       PRES   REMARKS
RAPID CTY ARPT MOSUNNY   73  57  57 S17G28    30.04F
PIERRE         MOSUNNY   72  57  59 SE17      30.06F
CUSTER         MOSUNNY   65  54  67 VRB5      30.15S HAZE
ELLSWORTH AFB  PTSUNNY   73  58  59 S20G29    30.02F
PHILIP         PTSUNNY   77  57  50 S14       30.04F
PINE RIDGE     CLOUDY    72  53  51 S15       30.09F
SPEARFISH      FAIR      77  54  44 N6        30.04F
WINNER         FAIR      74  53  48 SE14G20   30.10F
$$

SDZ004>011-016>023-039-040-072300-
NORTHEAST SOUTH DAKOTA

CITY           SKY/WX    TMP DP  RH WIND       PRES   REMARKS
ABERDEEN       SUNNY     74  45  35 S13       30.10F
WATERTOWN      SUNNY     68  46  45 SE8       30.14F
BROOKINGS      MOSUNNY   66  46  48 S5        30.16F
SISSETON         N/A     70  44  39 SW8       30.12F
$$

SDZ017-020-022-023-036>040-048>070-072300-
SOUTHEAST SOUTH DAKOTA

CITY           SKY/WX    TMP DP  RH WIND       PRES   REMARKS
SIOUX FALLS    PTSUNNY   70  49  47 VRB6      30.14F
HURON          MOSUNNY   70  45  40 SE8       30.11F
CHAMBERLAIN    PTSUNNY   68  56  65 SE8       30.12F
MITCHELL       MOSUNNY   72  47  40 E7        30.13F
YANKTON        SUNNY     70  48  46 E3        30.12F
$$

ABBREVIATIONS USED IN REMARKS
   TC - TEMPERATURE IN CELSIUS
  WCI - WIND CHILL INDEX
   HX - HEAT INDEX
  VSB - VISIBILITY



USA.gov is the U.S. government's official web portal to all federal, state and local government web resources and services.